Погода в Пейдже

США     36°54′28″N   111°27′30″W
темп.,
°C
ветер,
м/с
пор.,
м/с
влажн.,
%
обл.,
%
осадки,
мм/ч
давл.,
гПа
погр.,
м
16 октября, сб
сб1600:00+9ссв11280 0.0 102710
03:00+8св11310 0.0 102710
06:00+6всв11340 0.0 102710
09:00+8всв11280 0.0 102854
12:00+12всв22210 0.0 1027639
15:00+15в23170 0.0 1023900
18:00+16в23190 0.0 1021270
21:00+12всв11260 0.0 102210
17 октября, вс
вс1700:00+11всв11290 0.0 102210
03:00+9всв11310 0.0 102110
06:00+8ссв00320 0.0 102110
09:00+11вюв002976 0.0 102111
12:00+15в1221100 0.0 1018556
15:00+19св231996 0.0 1013684
18:00+19сз2223100 0.0 101063
21:00+16зюз11298 0.0 101011
18 октября, пн
пн1800:00+14ююз22350 0.0 101114
03:00+12ююз22420 0.0 101012
06:00+10ю12460 0.0 100912
09:00+12ююз14410 0.0 1010183
12:00+18юз58210 0.0 10061550
15:00+22юз1016150 0.0 10033127
18:00+18з1014180 0.0 10051850
21:00+13зсз1016292 0.0 1010744
19 октября, вт
вт1900:00+12зюз333695 0.0 101220
03:00+9зсз22425 0.0 101311
06:00+8сз22425 0.0 101513
09:00+9сз11331 0.0 101768
12:00+13ссз11242 0.0 1017729
15:00+16св11180 0.0 10151054
18:00+16в11185 0.0 1015326
21:00+12юв11230 0.0 101710
20 октября, ср
ср2000:00+11зсз11250 0.0 101810
03:00+10св11260 0.0 101910
06:00+9св112762 0.0 102010
09:00+11ссв112656 0.0 102210
12:00+15всв111811 0.0 1021601
15:00+18ссв121791 0.0 1018889
18:00+18ссз112119 0.0 101824
21:00+14сз1125100 0.0 101911